Regional Weather Roundup
Issued by NWS

Home | Current Version | Previous Version | Text Only | Print | Product List | Glossary Off
Versions: 1 2 3 4 5 6 7 8 9 10 11 12 13 14 15 16 17 18 19 20 21 22 23 24 25 26 27 28 29 30 31 32 33 34 35 36 37 38 39 40 41 42 43 44 45 46 47 48 49 50

000
ASUS43 KMKX 040911
RWRWI

WISCONSIN REGIONAL WEATHER ROUNDUP
NATIONAL WEATHER SERVICE MILWAUKEE/SULLIVAN WI
400 AM CDT SAT JUL 04 2015

NOTE: "FAIR" INDICATES FEW OR NO CLOUDS BELOW 12,000 FEET WITH NO
SIGNIFICANT WEATHER AND/OR OBSTRUCTIONS TO VISIBILITY.

WIZ001-002-006>008-014>016-023>028-041000-
NORTHWEST WISCONSIN

CITY           SKY/WX    TMP DP  RH WIND       PRES   REMARKS
SUPERIOR ARPT  CLEAR     59  55  89 CALM      29.93S
ASHLAND        PTCLDY    51  51 100 NW3       29.93S FOG
HAYWARD        FOG       55  54  96 N3        29.94R VSB 3/4
SIREN          PTCLDY    56  55  94 CALM      29.93R FOG
CUMBERLAND     CLEAR     59  57  94 CALM      29.94R FOG
RICE LAKE      FOG       59  58  96 CALM      29.94S VSB 1/4
CHETEK         CLEAR     60  59  99 CALM      29.93R
LADYSMITH        N/A     56  55  95 CALM      29.95R FOG
EAU CLAIRE     CLEAR     62  56  80 CALM      29.92R
MENOMONIE      CLEAR     60  58  94 CALM      29.93R
NEW RICHMOND   CLEAR     60  59  96 CALM      29.94R
OSCEOLA        CLEAR     58  58 100 CALM      29.96R FOG
$$

WIZ003>005-009-010-017-018-041000-
NORTH CENTRAL WISCONSIN

CITY           SKY/WX    TMP DP  RH WIND       PRES   REMARKS
MANITOWISH WTR FOG       53  53 100 CALM      29.94S VSB 1/4
ARBOR VITAE    CLEAR     55  53  95 CALM      29.94S FOG
WOODRUFF       CLEAR     55  53  95 CALM      29.94S FOG
RHINELANDER    FOG       52  52 100 CALM      29.95R VSB 1/4
EAGLE RIVER    FOG       52  52 100 CALM      29.94S VSB 3/4
LAND O LAKES     N/A     49  49  99 CALM      29.96R FOG
PHILLIPS         N/A     54  54 100 CALM      29.93S FOG
TOMAHAWK       FOG       53  52  97 CALM      29.94S VSB 1/4
MEDFORD        CLEAR     54  53  99 CALM      29.94S FOG
MERRILL        FOG       54  54 100 CALM      29.94S VSB 1/2
$$

WIZ029-030-035-036-043>047-041000-
CENTRAL WISCONSIN

CITY           SKY/WX    TMP DP  RH WIND       PRES   REMARKS
WAUSAU         CLEAR     60  57  89 E3        29.92S
MOSINEE        CLEAR     55  55 100 CALM      29.95S
MARSHFIELD     PTCLDY    60  55  83 CALM      29.94S
STEVENS POINT  CLEAR     54  53  95 CALM      29.94S
WAUPACA        CLEAR     59  58  97 CALM      29.93S
WAUTOMA        CLEAR     59  59 100 CALM      29.94S
WISC RAPIDS    PTCLDY    59  56  89 CALM      29.94F
CAMP DOUGLAS   CLEAR     54  54 100 E1        29.93S FOG
$$

WIZ011>013-019>022-031-037>040-048>050-041000-
NORTHEAST WISCONSIN

CITY           SKY/WX    TMP DP  RH WIND       PRES   REMARKS
ANTIGO         CLEAR     55  55  98 CALM      29.94S
SHAWANO        CLOUDY    63  58  86 CALM      29.92R
OCONTO         MOCLDY    58  58 100 CALM      29.90R
STURGEON BAY   MOCLDY    63  55  77 W5        29.92S
GREEN BAY      MOCLDY    62  59  90 SW5       29.91S
MANITOWOC      MOCLDY    64  59  83 MISG      29.92R
APPLETON       PTCLDY    61  55  82 W9        29.93S
CLINTONVILLE   CLOUDY    63  55  77 CALM      29.91S
OSHKOSH        CLEAR     64  57  78 W5        29.92S
$$

WIZ032>034-041-042-053>061-041000-
SOUTHWEST WISCONSIN

CITY           SKY/WX    TMP DP  RH WIND       PRES   REMARKS
LA CROSSE      MOCLDY    63  61  93 S7        29.94S
SPARTA         CLOUDY    53  51  93 CALM      29.95S
VIROQUA        CLEAR     60  60 100 SW6       29.96S
BOSCOBEL       MOCLDY    55  54  96 CALM      29.96S
PRAIRIE DU CHI CLEAR     57  55  94 CALM      29.96S
PLATTEVILLE    CLEAR     59  55  87 S3        29.97S
$$

WIZ056-057-062-063-064-067-068-041000-
SOUTH CENTRAL WISCONSIN

CITY           SKY/WX    TMP DP  RH WIND       PRES   REMARKS
REEDSBURG      CLEAR     55  55  99 CALM      29.94F
BARABOO/DELLS  CLEAR     58  54  88 CALM      29.95S
LONE ROCK      CLOUDY    54  52  93 CALM      29.97R
MINERAL POINT  CLEAR     61  54  77 SW5       29.97S
MADISON        CLEAR     57  54  89 CALM      29.95S
MIDDLETON      CLEAR     56  56  97 CALM      29.96S
WATERTOWN      CLEAR     55  55 100 CALM      29.94S
MONROE         CLEAR     59  52  77 W9        29.97R
JANESVILLE     CLEAR     55  54  94 CALM      29.96R
$$

WIZ051-052-058>065-066-070>072-041000-
SOUTHEAST WISCONSIN

CITY           SKY/WX    TMP DP  RH WIND       PRES   REMARKS
MILWAUKEE      PTCLDY    61  55  81 SW6       29.95R
WAUKESHA       CLEAR     54  52  94 CALM      29.96S
MILWAUKEE/TIMM CLEAR     57  52  82 CALM      29.95S
RACINE         CLEAR     61  53  75 W6        29.96S
BURLINGTON     CLEAR     50  50  99 CALM      29.96R FOG
KENOSHA        CLEAR     54  52  93 SW3       29.95S
FOND DU LAC    CLEAR     61  57  87 SW3       29.94R
SHEBOYGAN      MOCLDY    60  56  86 W5        29.92S
WEST BEND      CLEAR     54  50  87 CALM      29.94F
JUNEAU         MOCLDY    56  54  90 S5        29.96S
$$

LSZ147-162-041000-
LAKE SUPERIOR

STATION/POSITION TIME  TEMP    WIND        PRES    WAVE
                       AIR SEA DIR/SP/G            HT/PER
                 (UTC) (F)     (DEG/KT/KT) (MB)    (FT/S)
W MID LAKE BUOY  0850   40 38  350/  4/  4 1014.1R   0
DEVILS ISLAND    0900   57      30/  5/  5 1014.0R
SAXON HARBOR     0840   59        CALM     1012.9R
$$

LMZ867-665-643>646-041000-
LAKE MICHIGAN

STATION/POSITION TIME  TEMP    WIND        PRES    WAVE
                       AIR SEA DIR/SP/G            HT/PER
                 (UTC) (F)     (DEG/KT/KT) (MB)    (FT/S)
CHAMBERS ISLAND  0800   63     220/  4/  5 1012.2S
S GREEN BAY BUOY 0700   69 68  220/  8/ 10 1013.6R
N MID LAKE BUOY  0850   49 43  210/  6/  6 1012.4R   1/ 4
NORTHPORT PIER   0800   64     250/  4/  7 1011.9S
SISTER BAY       0814   64     360/  5/  8   N/A
KEWAUNEE LAKESHO 0800   62     300/  4/  6 1011.9S
SHEBOYGAN LAKESH 0900   64     260/ 10/ 11 1013.2S
PORT WASHINGTON  0840   64     280/  6/  8 1014.2S
ATWATER BUOY     0900   63 60  170/  4/  6 1015.2R
MILWAUKEE LAKESH 0800   65     240/  3/  4   N/A
KENOSHA   LAKESH 0900   63     250/  8/ 10 1013.9S
$$

TC  - TEMPERATURE IN CELSIUS
VSB - VISIBILITY IN STATUTE MILES
WCI - WIND CHILL INDEX
HX  - HEAT INDEX




USA.gov is the U.S. government's official web portal to all federal, state and local government web resources and services.